Location: Newark
(50.8922°N, 11.6094°E)
Time: 21:01:34
(UTC+00:00)

N. Korean satellite - Pass Details

Date: 04 February 2020
Orbit: 456 x 505 km, 97.2° (Epoch: 26 February)

Event Time Altitude Azimuth Distance (km) Brightness Sun altitude
Rises 16:46:19 0° 192° (SSW) 2,473 10.6 -6.2°
Reaches altitude 10° 16:48:33 10° 206° (SSW) 1,609 9.9 -6.6°
Maximum altitude 16:51:32 27° 265° (W) 938 9.1 -7.0°
Drops below altitude 10° 16:54:34 10° 325° (NW) 1,641 9.5 -7.5°
Sets 16:56:52 0° 338° (NNW) 2,534 10.3 -7.8°
